DW4238 Weather Reports


Display with metric or nautical units.
time (UTC)temp
F
wind
direction
speed
MPH
gust
MPH
rain 1hr
in
rain 24hr
in
rain mn
in
humidity
%
barometer
mb
20260510120043 70 144 3.0 7.0 0.00 0.00 0.00 93 1011.7
20260510115552 70 150 4.0 9.0 0.00 0.00 0.00 93 1011.7
20260510115055 70 145 5.0 8.0 0.00 0.00 0.00 93 1011.6
20260510114525 70 158 5.0 7.0 0.00 0.00 0.00 92 1011.5
20260510114033 70 171 0.0 4.0 0.00 0.00 0.00 92 1011.7
20260510113054 69 174 0.0 0.0 0.00 0.00 0.00 92 1011.6
20260510112557 69 174 0.0 0.0 0.00 0.00 0.00 92 1011.5
20260510112106 69 175 0.0 0.0 0.00 0.00 0.00 92 1011.4
20260510111025 69 178 0.0 3.0 0.00 0.00 0.00 92 1011.0
20260510110051 70 178 1.0 4.0 0.00 0.00 0.00 92 1010.7
20260510105601 70 178 2.0 6.0 0.00 0.00 0.00 92 1010.5
20260510105059 70 180 4.0 9.0 0.00 0.00 0.00 92 1010.4
20260510104528 70 183 6.0 9.0 0.00 0.00 0.00 92 1010.2
20260510104038 70 158 6.0 9.0 0.00 0.00 0.00 92 1010.1
20260510103059 70 178 4.0 7.0 0.00 0.00 0.00 92 1010.0
20260510102602 70 178 5.0 9.0 0.00 0.00 0.00 91 1010.0
20260510102113 70 165 5.0 9.0 0.00 0.00 0.00 92 1010.0
20260510101614 70 167 7.0 9.0 0.00 0.00 0.00 92 1010.0
20260510101027 70 169 6.0 8.0 0.00 0.00 0.00 91 1010.0
20260510100627 70 182 6.0 8.0 0.00 0.00 0.00 91 1009.8
20260510100038 70 183 5.0 8.0 0.00 0.00 0.00 91 1009.8
20260510095549 70 168 7.0 8.0 0.00 0.00 0.00 91 1009.8
20260510094539 71 180 7.0 12.0 0.00 0.00 0.00 91 1009.9
20260510094049 71 174 7.0 11.0 0.00 0.00 0.00 91 1009.9
20260510093049 71 171 8.0 11.0 0.00 0.00 0.00 91 1009.8
20260510092537 71 165 7.0 10.0 0.00 0.00 0.00 90 1009.8
20260510092038 71 165 6.0 10.0 0.00 0.00 0.00 90 1009.8
20260510091607 71 169 6.0 9.0 0.00 0.00 0.00 90 1009.8
20260510091111 71 180 5.0 8.0 0.00 0.00 0.00 90 1009.7
20260510090525 71 167 5.0 8.0 0.00 0.00 0.00 90 1009.8
20260510090025 71 160 6.0 10.0 0.00 0.00 0.00 89 1009.7
20260510085535 71 178 7.0 9.0 0.00 0.00 0.00 89 1009.7
20260510084556 71 176 4.0 7.0 0.00 0.00 0.00 89 1009.9
20260510084108 71 178 5.0 7.0 0.00 0.00 0.00 88 1009.9
20260510083109 71 172 5.0 7.0 0.00 0.00 0.00 88 1010.0
20260510082611 71 184 4.0 7.0 0.00 0.00 0.00 88 1010.0
20260510082121 71 169 5.0 8.0 0.00 0.00 0.00 88 1010.1
20260510081530 71 190 6.0 8.0 0.00 0.00 0.00 87 1010.0
20260510081109 71 177 5.0 7.0 0.00 0.00 0.00 87 1010.0
20260510080523 71 166 6.0 8.0 0.00 0.00 0.00 87 1010.1
20260510080026 71 172 5.0 6.0 0.00 0.00 0.00 87 1010.1
20260510075537 71 178 5.0 6.0 0.00 0.00 0.00 86 1010.0
20260510074557 72 175 6.0 10.0 0.00 0.00 0.00 86 1010.0
20260510074107 72 167 6.0 10.0 0.00 0.00 0.00 85 1010.0
20260510073611 72 181 6.0 11.0 0.00 0.00 0.00 85 1010.2
20260510073037 72 180 7.0 11.0 0.00 0.00 0.00 85 1010.2
20260510072540 72 168 8.0 10.0 0.00 0.00 0.00 85 1010.2
20260510072050 73 171 7.0 12.0 0.00 0.00 0.00 84 1010.2
20260510071522 73 156 8.0 12.0 0.00 0.00 0.00 84 1010.2
20260510071024 73 171 9.0 13.0 0.00 0.00 0.00 84 1010.2
20260510070637 73 184 9.0 13.0 0.00 0.00 0.00 84 1010.2
20260510070027 73 166 8.0 11.0 0.00 0.00 0.00 84 1010.2
20260510065537 73 150 8.0 11.0 0.00 0.00 0.00 84 1010.3
20260510065027 73 167 8.0 12.0 0.00 0.00 0.00 83 1010.2
20260510064547 72 161 9.0 12.0 0.00 0.00 0.00 83 1010.2
20260510064033 72 167 8.0 12.0 0.00 0.00 0.00 83 1010.2
20260510063521 72 152 7.0 11.0 0.00 0.00 0.00 83 1010.3
20260510063101 72 176 8.0 10.0 0.00 0.00 0.00 83 1010.2
20260510062522 72 171 7.0 10.0 0.00 0.00 0.00 83 1010.3
20260510062101 72 159 7.0 10.0 0.00 0.00 0.00 83 1010.4
20260510061551 72 160 8.0 10.0 0.00 0.00 0.00 82 1010.4
20260510061036 73 154 7.0 11.0 0.00 0.00 0.00 82 1010.4
20260510060523 73 144 8.0 10.0 0.00 0.00 0.00 81 1010.4
20260510060022 73 163 8.0 11.0 0.00 0.00 0.00 81 1010.3
20260510055532 73 155 8.0 11.0 0.00 0.00 0.00 81 1010.3
20260510055041 73 146 8.0 11.0 0.00 0.00 0.00 81 1010.3
20260510054553 73 148 8.0 11.0 0.00 0.00 0.00 81 1010.4
20260510054022 73 160 8.0 11.0 0.00 0.00 0.00 81 1010.3
20260510053551 73 146 8.0 11.0 0.00 0.00 0.00 80 1010.4
20260510053031 73 140 7.0 10.0 0.00 0.00 0.00 80 1010.4
20260510052532 73 144 7.0 10.0 0.00 0.00 0.00 80 1010.6
20260510052022 73 150 6.0 10.0 0.00 0.00 0.00 80 1010.6
20260510051541 73 130 6.0 10.0 0.00 0.00 0.00 80 1010.6
20260510051024 73 143 6.0 10.0 0.00 0.00 0.00 79 1010.4
20260510050531 74 147 8.0 10.0 0.00 0.00 0.00 79 1010.2
20260510050031 74 149 6.0 9.0 0.00 0.00 0.00 79 1010.3
20260510045534 74 134 5.0 10.0 0.00 0.00 0.00 79 1010.3
20260510044602 74 151 6.0 9.0 0.00 0.00 0.00 79 1010.3
20260510044048 74 142 5.0 9.0 0.00 0.00 0.00 79 1010.3
20260510043027 74 135 6.0 12.0 0.00 0.00 0.00 79 1010.5
20260510042639 74 113 7.0 13.0 0.00 0.00 0.00 79 1010.5
20260510042119 74 134 6.0 13.0 0.00 0.00 0.00 80 1010.4
20260510041546 74 141 8.0 11.0 0.00 0.00 0.00 82 1010.4
20260510040631 74 126 3.0 7.0 0.00 0.00 0.00 82 1010.2
20260510040028 74 138 4.0 5.0 0.00 0.00 0.00 82 1010.0
20260510035539 74 138 3.0 7.0 0.00 0.00 0.00 82 1009.9
20260510034559 74 140 6.0 8.0 0.00 0.00 0.00 82 1010.0
20260510034052 75 128 4.0 7.0 0.00 0.00 0.00 82 1009.9
20260510033048 75 136 5.0 9.0 0.00 0.00 0.00 82 1009.8
20260510032552 75 148 6.0 9.0 0.00 0.00 0.00 81 1009.8
20260510031558 75 144 6.0 8.0 0.00 0.00 0.00 81 1009.7
20260510031101 76 141 4.0 7.0 0.00 0.00 0.00 80 1009.5
20260510030612 76 134 3.0 7.0 0.00 0.00 0.00 79 1009.4
20260510030029 76 132 3.0 9.0 0.00 0.00 0.00 79 1009.2
20260510025539 76 134 4.0 9.0 0.00 0.00 0.00 79 1009.2
20260510024604 77 207 3.0 4.0 0.00 0.00 0.00 77 1009.1
20260510024051 77 207 3.0 4.0 0.00 0.00 0.00 76 1009.0
20260510023550 78 209 2.0 4.0 0.00 0.00 0.00 75 1009.1
20260510023020 78 209 3.0 4.0 0.00 0.00 0.00 74 1008.9
20260510022631 78 210 3.0 4.0 0.00 0.00 0.00 74 1008.8
20260510021607 78 211 2.0 3.0 0.00 0.00 0.00 74 1008.7
20260510021110 79 211 2.0 3.0 0.00 0.00 0.00 72 1008.7
20260510020620 79 211 2.0 3.0 0.00 0.00 0.00 72 1008.8
20260510020039 79 211 2.0 3.0 0.00 0.00 0.00 71 1008.6
20260510015549 79 211 2.0 4.0 0.00 0.00 0.00 71 1008.6
20260510014615 80 247 2.0 4.0 0.00 0.00 0.00 70 1008.5
20260510014027 80 248 1.0 4.0 0.00 0.00 0.00 70 1008.4
20260510013631 80 248 0.0 0.0 0.00 0.00 0.00 69 1008.3
20260510013040 81 248 0.0 0.0 0.00 0.00 0.00 68 1008.2
20260510012544 81 248 0.0 0.0 0.00 0.00 0.00 67 1008.3
20260510011605 81 248 0.0 3.0 0.00 0.00 0.00 67 1008.0
20260510011056 81 248 2.0 3.0 0.00 0.00 0.00 68 1008.0
20260510010057 82 190 3.0 4.0 0.00 0.00 0.00 67 1007.9
20260510005600 82 190 2.0 4.0 0.00 0.00 0.00 68 1007.8
20260510005110 82 190 3.0 5.0 0.00 0.00 0.00 67 1007.9
20260510004537 83 190 3.0 5.0 0.00 0.00 0.00 66 1007.8
20260510004044 83 185 2.0 3.0 0.00 0.00 0.00 65 1007.8
20260510003108 83 213 0.0 0.0 0.00 0.00 0.00 64 1007.6
20260510002550 83 213 0.0 0.0 0.00 0.00 0.00 65 1007.5
20260510001611 83 213 1.0 4.0 0.00 0.00 0.00 63 1007.4
20260510001101 83 213 2.0 4.0 0.00 0.00 0.00 64 1007.3
20260510000613 82 213 2.0 4.0 0.00 0.00 0.00 64 1007.3
20260510000038 82 214 2.0 9.0 0.00 0.00 0.00 64 1007.3
20260509235528 81 214 4.0 11.0 0.00 0.00 0.00 65 1007.4
20260509234550 80 196 9.0 11.0 0.00 0.00 0.00 67 1007.7
20260509234103 79 196 8.0 12.0 0.00 0.00 0.00 68 1007.7
20260509233606 78 234 9.0 13.0 0.00 0.00 0.00 68 1007.7
20260509233034 78 207 10.0 20.0 0.00 0.00 0.00 67 1008.0
20260509232536 79 207 12.0 20.0 0.00 0.00 0.00 65 1007.9
20260509231543 81 223 12.0 19.0 0.00 0.00 0.00 59 1007.9
20260509231050 83 211 10.0 15.0 0.00 0.00 0.00 60 1008.0
20260509230117 87 22 1.0 6.0 0.00 0.00 0.00 67 1007.4
20260509225600 87 28 1.0 3.0 0.00 0.00 0.00 68 1007.3
20260509225111 88 27 2.0 4.0 0.00 0.00 0.00 67 1007.3
20260509224527 88 26 2.0 4.0 0.00 0.00 0.00 66 1007.1
20260509224040 88 27 3.0 6.0 0.00 0.00 0.00 66 1007.1
20260509223040 89 9 3.0 5.0 0.00 0.00 0.00 64 1006.9
20260509222550 89 333 3.0 5.0 0.00 0.00 0.00 64 1006.9
20260509222053 89 313 3.0 5.0 0.00 0.00 0.00 62 1006.8
20260509221523 89 315 3.0 8.0 0.00 0.00 0.00 61 1006.7
20260509221024 89 319 5.0 8.0 0.00 0.00 0.00 62 1006.6
20260509220050 89 61 3.0 6.0 0.00 0.00 0.00 64 1006.5
20260509215555 89 65 4.0 6.0 0.00 0.00 0.00 64 1006.6
20260509214616 90 22 4.0 6.0 0.00 0.00 0.00 64 1006.9
20260509214027 90 26 4.0 13.0 0.00 0.00 0.00 63 1006.9
20260509213531 90 68 6.0 13.0 0.00 0.00 0.00 62 1006.9
20260509213138 89 337 3.0 11.0 0.00 0.00 0.00 62 1006.9
20260509212630 89 283 2.0 8.0 0.00 0.00 0.00 61 1007.1
20260509212111 89 284 5.0 8.0 0.00 0.00 0.00 60 1007.3
20260509211537 89 258 3.0 8.0 0.00 0.00 0.00 61 1007.3
20260509211040 89 310 3.0 8.0 0.00 0.00 0.00 61 1007.4
20260509210108 88 265 5.0 9.0 0.00 0.00 0.00 61 1007.4
20260509205552 88 258 6.0 8.0 0.00 0.00 0.00 61 1007.4
20260509205103 88 333 3.0 9.0 0.00 0.00 0.00 61 1007.3
20260509204521 88 325 4.0 11.0 0.00 0.00 0.00 62 1007.4
20260509204036 88 287 4.0 11.0 0.00 0.00 0.00 62 1007.5
20260509203100 88 288 4.0 9.0 0.00 0.00 0.00 63 1007.7
20260509202548 88 355 5.0 11.0 0.00 0.00 0.00 62 1007.8
20260509201546 87 319 7.0 11.0 0.00 0.00 0.00 68 1008.0
20260509201031 87 180 2.0 8.0 0.00 0.00 0.00 68 1007.9
20260509200030 87 272 4.0 7.0 0.00 0.00 0.00 67 1008.0
20260509195543 87 334 4.0 6.0 0.00 0.00 0.00 68 1008.1
20260509194608 86 20 2.0 8.0 0.00 0.00 0.00 69 1008.1
20260509194118 87 5 3.0 8.0 0.00 0.00 0.00 68 1008.1
20260509193521 87 320 3.0 5.0 0.00 0.00 0.00 69 1008.2
20260509193034 86 355 3.0 8.0 0.00 0.00 0.00 71 1008.3
20260509192539 86 252 4.0 8.0 0.00 0.00 0.00 69 1008.4
20260509191540 86 9 3.0 8.0 0.00 0.00 0.00 72 1008.4
20260509191111 86 254 4.0 8.0 0.00 0.00 0.00 71 1008.5
20260509190613 85 262 3.0 8.0 0.00 0.00 0.00 75 1008.7
20260509190044 85 319 5.0 8.0 0.00 0.00 0.00 73 1008.8
20260509185547 84 302 3.0 5.0 0.00 0.00 0.00 74 1008.9
20260509185053 84 311 0.0 6.0 0.00 0.00 0.00 76 1008.9
20260509184521 84 311 5.0 6.0 0.00 0.00 0.00 74 1008.9
20260509184026 84 317 2.0 8.0 0.00 0.00 0.00 76 1009.0
20260509183048 84 278 4.0 7.0 0.00 0.00 0.00 76 1009.1
20260509182558 84 257 2.0 7.0 0.00 0.00 0.00 76 1009.1
20260509181557 84 360 3.0 5.0 0.00 0.00 0.00 77 1009.3
20260509181042 83 26 2.0 6.0 0.00 0.00 0.00 80 1009.4
20260509180106 83 351 1.0 6.0 0.00 0.00 0.00 81 1009.6
20260509175608 83 319 5.0 6.0 0.00 0.00 0.00 80 1009.7
20260509175114 82 64 2.0 6.0 0.00 0.00 0.00 80 1009.7
20260509174526 82 315 3.0 9.0 0.00 0.00 0.00 80 1009.8
20260509174029 82 320 6.0 9.0 0.00 0.00 0.00 80 1009.8
20260509173640 82 295 4.0 9.0 0.00 0.00 0.00 81 1009.8
20260509173046 83 223 3.0 8.0 0.00 0.00 0.00 80 1009.9
20260509172531 82 247 3.0 8.0 0.00 0.00 0.00 80 1009.9
20260509171552 82 241 4.0 7.0 0.00 0.00 0.00 79 1009.9
20260509171109 82 205 4.0 6.0 0.00 0.00 0.00 80 1009.9
20260509170108 81 237 2.0 7.0 0.00 0.00 0.00 82 1009.9
20260509165558 81 238 2.0 7.0 0.00 0.00 0.00 82 1010.0
20260509164559 81 226 2.0 7.0 0.00 0.00 0.00 84 1009.8
20260509164059 80 229 0.0 5.0 0.00 0.00 0.00 84 1009.9
20260509163609 80 229 3.0 5.0 0.00 0.00 0.00 84 1010.0
20260509162528 80 248 1.0 7.0 0.00 0.00 0.00 85 1010.0
20260509161554 80 253 5.0 8.0 0.00 0.00 0.00 85 1010.0
20260509161045 80 261 4.0 8.0 0.00 0.00 0.00 85 1010.0
20260509160106 79 226 5.0 9.0 0.00 0.00 0.00 86 1009.8
20260509155618 79 161 5.0 8.0 0.00 0.00 0.00 88 1009.6
20260509155057 79 214 6.0 11.0 0.00 0.00 0.00 88 1009.6
20260509154528 78 181 8.0 14.0 0.00 0.00 0.00 89 1009.5
20260509154041 78 209 10.0 14.0 0.00 0.00 0.00 89 1009.2
20260509153040 77 200 8.0 10.0 0.00 0.00 0.00 92 1009.4
20260509152548 77 215 7.0 11.0 0.00 0.00 0.00 92 1009.5
20260509152053 76 200 8.0 11.0 0.00 0.00 0.00 93 1009.5
20260509151522 76 186 9.0 11.0 0.00 0.00 0.00 93 1009.4
20260509151026 76 194 7.0 10.0 0.00 0.00 0.00 94 1009.5
20260509150042 76 204 5.0 10.0 0.00 0.00 0.00 94 1009.7
20260509145553 75 238 8.0 10.0 0.00 0.00 0.00 94 1009.6
20260509144613 75 213 4.0 6.0 0.00 0.00 0.00 94 1009.6
20260509144104 75 222 3.0 4.0 0.00 0.00 0.00 95 1009.7
20260509143608 75 188 3.0 7.0 0.00 0.00 0.00 95 1009.7
20260509143039 75 225 4.0 7.0 0.00 0.00 0.00 94 1009.6
20260509142551 75 204 4.0 7.0 0.00 0.00 0.00 95 1009.6
20260509141610 75 211 0.0 5.0 0.00 0.00 0.00 95 1009.6
20260509141114 75 211 3.0 5.0 0.00 0.00 0.00 95 1009.7
20260509140119 75 182 4.0 6.0 0.00 0.00 0.00 95 1009.7
20260509135621 75 136 2.0 6.0 0.00 0.00 0.00 95 1009.5
20260509134622 74 178 2.0 4.0 0.00 0.00 0.00 95 1009.6
20260509134112 74 177 1.0 4.0 0.00 0.00 0.00 95 1009.8
20260509133623 74 171 3.0 5.0 0.00 0.00 0.00 95 1009.6
20260509133024 74 144 2.0 5.0 0.00 0.00 0.00 95 1009.6
20260509132537 74 128 2.0 5.0 0.00 0.00 0.00 95 1009.8
20260509131558 74 167 1.0 5.0 0.00 0.00 0.00 94 1009.8
20260509131110 74 167 2.0 5.0 0.00 0.00 0.00 94 1009.8
20260509130614 74 167 0.0 3.0 0.00 0.00 0.00 94 1009.6
20260509130042 74 163 0.0 0.0 0.00 0.00 0.00 94 1009.7
20260509125545 74 163 0.0 0.0 0.00 0.00 0.00 94 1009.6
20260509124619 74 145 0.0 0.0 0.00 0.00 0.00 94 1009.8
20260509124104 74 145 0.0 0.0 0.00 0.00 0.00 94 1009.8
20260509123614 74 145 0.0 0.0 0.00 0.00 0.00 94 1009.7
20260509123043 74 145 0.0 0.0 0.00 0.00 0.00 94 1009.6
20260509122548 74 145 0.0 0.0 0.00 0.00 0.00 94 1009.5
20260509121610 74 145 0.0 0.0 0.00 0.00 0.00 94 1009.2
20260509121026 74 145 0.0 0.0 0.00 0.00 0.00 94 1009.0
20260509120536 74 145 0.0 2.0 0.00 0.00 0.00 94 1009.1